Greeley, CO

2:55 AM MDT on April 24, 2018 (GMT -0600)
Greeley-Weld County

Weather History for KGXY - July, 2013

Change the Weather History Date:

Monday, July 1, 2013

  Actual Average Record
Temperature  
Mean Temperature 66 °F -  
Max Temperature 80 °F - 102 °F (1990)
Min Temperature 53 °F - 49 °F (1968)
Degree Days  
Heating Degree Days 0    
Month to date heating degree days  
Cooling Degree Days 2    
Month to date cooling degree days  
Growing Degree Days 16 (Base 50)    
Moisture  
Dew Point 50 °F    
Average Humidity 56    
Maximum Humidity 77    
Minimum Humidity 32    
Precipitation  
Precipitation 0.03 in - 0.84 in (2003)
Sea Level Pressure  
Sea Level Pressure 30.27 in    
Wind  
Wind Speed 9 mph (ESE)    
Max Wind Speed 21 mph    
Max Gust Speed 25 mph    
Visibility 10 miles    
Events Thunderstorm    
T = Trace of Precipitation, MM = Missing Value Source: NWS Daily Summary

Daily Weather History Graph

Daily Weather History Graph

Search for Another Location

Airport or City:

Astronomy

Jul. 01, 2013 Rise Set
Actual Time 5:32 AM MDT 8:32 PM MDT
Civil Twilight 4:59 AM MDT 9:05 PM MDT
Nautical Twilight 4:17 AM MDT 9:47 PM MDT
Astronomical Twilight 3:28 AM MDT 10:36 PM MDT
Moon 1:04 AM MDT (7/1) 2:49 PM MDT (7/1)
Length of Visible Light 16h 06m
Length of Day
15h 00m
Waning Crescent, 35% of the Moon is Illuminated
Jul 1
Waning Crescent
Jul 8
New
Jul 15
First Quarter
Jul 22
Full
Jul 29
Last Quarter

Hourly Weather History & Observations

Time (MDT) Temp. Dew Point Humidity Pressure Visibility Wind Dir Wind Speed Gust Speed Precip Events Conditions
12:15 AM 60.8 °F 48.2 °F 63% 30.24 in 10.0 mi East 6.9 mph - N/A   Overcast
12:35 AM 60.8 °F 48.2 °F 63% 30.24 in 10.0 mi ESE 6.9 mph - N/A   Overcast
12:55 AM 60.8 °F 48.2 °F 63% 30.24 in 10.0 mi East 8.1 mph - N/A   Overcast
1:15 AM 60.8 °F 48.2 °F 63% 30.24 in 10.0 mi East 5.8 mph - N/A   Overcast
1:35 AM 60.8 °F 48.2 °F 63% 30.24 in 10.0 mi ENE 6.9 mph - N/A   Overcast
1:55 AM 57.2 °F 48.2 °F 72% 30.24 in 10.0 mi ENE 6.9 mph - N/A   Overcast
2:15 AM 60.8 °F 50.0 °F 68% 30.23 in 10.0 mi East 5.8 mph - N/A   Overcast
2:35 AM 59.0 °F 50.0 °F 72% 30.23 in 10.0 mi East 6.9 mph - N/A   Overcast
2:55 AM 57.2 °F 48.2 °F 72% 30.23 in 10.0 mi East 4.6 mph - N/A   Overcast
3:15 AM 57.2 °F 48.2 °F 72% 30.23 in 10.0 mi ENE 5.8 mph - N/A   Overcast
3:35 AM 57.2 °F 48.2 °F 72% 30.23 in 10.0 mi ENE 8.1 mph - N/A   Overcast
3:55 AM 57.2 °F 48.2 °F 72% 30.23 in 10.0 mi ENE 5.8 mph - N/A   Overcast
4:15 AM 55.4 °F 46.4 °F 72% 30.23 in 10.0 mi NE 4.6 mph - N/A   Overcast
4:35 AM 55.4 °F 46.4 °F 72% 30.24 in 10.0 mi North 6.9 mph - N/A   Overcast
4:55 AM 55.4 °F 46.4 °F 72% 30.24 in 10.0 mi North 8.1 mph - N/A   Overcast
5:15 AM 55.4 °F 46.4 °F 72% 30.25 in 10.0 mi North 6.9 mph - N/A   Overcast
5:35 AM 53.6 °F 46.4 °F 77% 30.25 in 10.0 mi North 6.9 mph - N/A   Overcast
5:55 AM 55.4 °F 46.4 °F 72% 30.26 in 10.0 mi NNE 8.1 mph - N/A   Overcast
6:15 AM 55.4 °F 46.4 °F 72% 30.27 in 10.0 mi NE 6.9 mph - N/A   Overcast
6:35 AM 57.2 °F 48.2 °F 72% 30.28 in 10.0 mi NE 8.1 mph - N/A   Overcast
6:55 AM 57.2 °F 46.4 °F 67% 30.29 in 7.0 mi ENE 10.4 mph - N/A   Overcast
7:15 AM 59.0 °F 48.2 °F 67% 30.29 in 10.0 mi East 10.4 mph - N/A   Overcast
7:35 AM 60.8 °F 48.2 °F 63% 30.30 in 10.0 mi East 15.0 mph - N/A   Overcast
7:55 AM 62.6 °F 48.2 °F 59% 30.31 in 10.0 mi ESE 12.7 mph 19.6 mph N/A   Overcast
8:15 AM 62.6 °F 48.2 °F 59% 30.32 in 10.0 mi ESE 13.8 mph 19.6 mph N/A   Overcast
8:35 AM 66.2 °F 48.2 °F 52% 30.33 in 10.0 mi ESE 13.8 mph 19.6 mph N/A   Overcast
8:55 AM 66.2 °F 50.0 °F 56% 30.33 in 10.0 mi SE 17.3 mph 20.7 mph N/A   Overcast
9:15 AM 69.8 °F 48.2 °F 46% 30.33 in 10.0 mi SE 15.0 mph 24.2 mph N/A   Overcast
9:35 AM 69.8 °F 51.8 °F 53% 30.33 in 10.0 mi SE 15.0 mph 20.7 mph N/A   Overcast
9:55 AM 71.6 °F 50.0 °F 46% 30.33 in 10.0 mi SSE 20.7 mph 25.3 mph N/A   Overcast
10:15 AM 73.4 °F 50.0 °F 44% 30.33 in 10.0 mi SSE 13.8 mph 19.6 mph N/A   Overcast
10:35 AM 73.4 °F 51.8 °F 47% 30.32 in 10.0 mi South 13.8 mph 23.0 mph N/A   Overcast
10:55 AM 75.2 °F 51.8 °F 44% 30.32 in 10.0 mi South 16.1 mph 20.7 mph N/A   Overcast
11:15 AM 77.0 °F 51.8 °F 41% 30.31 in 10.0 mi SSE 15.0 mph 25.3 mph N/A   Overcast
11:35 AM 78.8 °F 50.0 °F 36% 30.31 in 10.0 mi SSE 15.0 mph - N/A   Overcast
11:55 AM 78.8 °F 51.8 °F 39% 30.30 in 10.0 mi SSE 9.2 mph 16.1 mph N/A   Overcast
12:15 PM 78.8 °F 51.8 °F 39% 30.30 in 10.0 mi SSE 12.7 mph 17.3 mph N/A   Overcast
12:35 PM 78.8 °F 50.0 °F 36% 30.29 in 10.0 mi South 9.2 mph 17.3 mph N/A   Overcast
12:55 PM 80.6 °F 51.8 °F 37% 30.29 in 10.0 mi SE 8.1 mph 17.3 mph N/A   Overcast
1:15 PM 80.6 °F 50.0 °F 34% 30.28 in 10.0 mi SE 8.1 mph 20.7 mph N/A   Overcast
1:35 PM 80.6 °F 50.0 °F 34% 30.27 in 10.0 mi ESE 11.5 mph 17.3 mph N/A   Overcast
1:55 PM 78.8 °F 50.0 °F 36% 30.27 in 10.0 mi East 6.9 mph - N/A   Overcast
2:15 PM 80.6 °F 48.2 °F 32% 30.27 in 10.0 mi East 12.7 mph 16.1 mph N/A   Overcast
2:35 PM 80.6 °F 50.0 °F 34% 30.26 in 10.0 mi ESE 8.1 mph - N/A   Overcast
2:55 PM 80.6 °F 50.0 °F 34% 30.26 in 10.0 mi ESE 4.6 mph - N/A   Overcast
3:35 PM 80.6 °F 50.0 °F 34% 30.24 in 10.0 mi East 11.5 mph 17.3 mph N/A   Overcast
3:55 PM 75.2 °F 48.2 °F 38% 30.27 in 10.0 mi NNE 4.6 mph - N/A   Overcast
4:15 PM 69.8 °F 53.6 °F 56% 30.28 in 10.0 mi SSW 3.5 mph - 0.02 in   Mostly Cloudy
4:35 PM 75.2 °F 57.2 °F 53% 30.26 in 10.0 mi SE 9.2 mph - 0.03 in   Overcast
4:55 PM 73.4 °F 55.4 °F 53% 30.26 in 10.0 mi SE 10.4 mph - 0.03 in   Overcast
5:15 PM 77.0 °F 55.4 °F 47% 30.26 in 10.0 mi ESE 10.4 mph - N/A   Overcast
5:35 PM 75.2 °F 53.6 °F 47% 30.25 in 10.0 mi SSE 6.9 mph - N/A   Overcast
5:55 PM 78.8 °F 53.6 °F 42% 30.26 in 10.0 mi SE 6.9 mph - N/A   Overcast
6:15 PM 75.2 °F 53.6 °F 47% 30.26 in 10.0 mi East 16.1 mph - N/A Thunderstorm Overcast
6:35 PM 69.8 °F 55.4 °F 60% 30.26 in 10.0 mi East 13.8 mph - N/A   Overcast
6:55 PM 69.8 °F 53.6 °F 56% 30.26 in 10.0 mi ESE 11.5 mph - N/A   Overcast
7:15 PM 69.8 °F 53.6 °F 56% 30.27 in 10.0 mi East 9.2 mph - N/A   Overcast
7:55 PM 69.8 °F 53.6 °F 56% 30.26 in 10.0 mi ESE 8.1 mph - N/A   Overcast
8:15 PM 69.8 °F 53.6 °F 56% 30.26 in 10.0 mi SE 10.4 mph - N/A   Overcast
8:35 PM 69.8 °F 51.8 °F 53% 30.26 in 10.0 mi SE 9.2 mph - N/A   Overcast
9:15 PM 66.2 °F 53.6 °F 64% 30.28 in 10.0 mi East 5.8 mph - N/A   Overcast
9:35 PM 66.2 °F 53.6 °F 64% 30.29 in 5.0 mi Calm Calm - N/A   Overcast
9:55 PM 66.2 °F 55.4 °F 68% 30.30 in 5.0 mi West 3.5 mph - N/A   Overcast
10:15 PM 64.4 °F 53.6 °F 68% 30.30 in 10.0 mi SE 3.5 mph - N/A   Overcast
10:35 PM 62.6 °F 53.6 °F 72% 30.30 in 10.0 mi ESE 5.8 mph - N/A   Overcast
10:55 PM 62.6 °F 51.8 °F 68% 30.31 in 7.0 mi NE 6.9 mph - N/A   Overcast
11:15 PM 62.6 °F 53.6 °F 72% 30.31 in 10.0 mi ENE 8.1 mph - N/A   Overcast
11:35 PM 62.6 °F 53.6 °F 72% 30.30 in 10.0 mi ESE 8.1 mph - N/A   Overcast